Location: Hurstbourne Priors
(51.2000°N, 1.3667°W)
Time: 17:54:22
(UTC+00:00)

Cosmos 1697 Rocket - Pass Details

Date: 09 April 2020
Orbit: 831 x 845 km, 71.0° (Epoch: 28 May)

Event Time Altitude Azimuth Distance (km) Brightness Sun altitude
Rises 22:48:59 0° 322° (NW) 3,413 7.0 -28.4°
Reaches altitude 10° 22:51:50 10° 310° (NW) 2,474 5.9 -28.6°
Maximum altitude 22:56:19 25° 257° (WSW) 1,664 4.2 -28.8°
Enters shadow 22:56:39 24° 252° (WSW) 1,669 4.2 -28.9°
